Wetbulb
74.37 76.00 76.78 76.76 76.51 76.89 76.91 76.77 77.23 77.13 77.23 77.27 77.41 76.99 76.57 76.11 76.32 76.43 76.99 76.36 75.74 76.30 75.08 74.67 75.53 75.72 76.52 76.19 76.00 76.57 76.73 76.80 77.32 77.20 76.66 76.47 76.71 76.55 76.37 75.59 77.09 75.16 75.97
75.09 75.65 76.47 76.92 77.02 77.21 77.49 77.13 77.02 76.78 76.95 77.13 76.73 76.53 76.47 76.88 77.19 77.18 76.77 75.78 76.53 75.81 75.09 74.48 75.50 75.26 75.97 75.94 76.03 76.54 76.29 76.24 77.00 76.97 77.14 76.76 76.45 76.06 76.06 76.45 77.59 76.16 75.88
74.46 75.44 76.73 77.74 77.47 77.32 77.31 77.26 77.37 77.24 77.23 76.98 77.02 76.89 76.66 76.93 76.98 76.86 76.43 75.75 76.38 75.70 75.48 75.20 75.12 75.78 75.64 75.20 75.86 76.22 76.47 76.39 76.37 76.44 76.81 75.78 76.64 76.12 76.31 76.54 76.01 75.68 75.70
75.15 75.54 76.85 77.35 77.66 77.37 77.72 77.48 77.41 77.37 77.24 76.99 77.03 76.73 76.39 76.57 76.42 76.73 76.14 75.92 76.19 75.91 75.75 75.67 75.53 75.42 75.75 75.75 75.72 75.99 76.29 76.41 76.42 75.95 76.23 74.81 75.60 76.06 76.19 76.03 75.72 75.72 75.66
74.37 74.97 77.36 77.42 77.89 77.49 77.37 77.27 77.04 77.07 77.10 77.17 76.93 76.54 76.52 76.41 76.52 76.35 76.17 75.73 75.78 75.78 76.00 75.78 75.64 75.28 75.34 75.50 75.59 76.11 75.82 75.73 75.28 76.38 76.20 76.66 76.02 76.12 76.04 75.95 75.76 75.60 75.82
74.43 74.84 77.23 77.29 76.82 77.65 77.15 77.32 77.29 77.21 77.29 76.84 76.85 76.81 76.84 76.25 76.20 76.12 75.95 75.89 75.84 75.75 75.81 75.81 75.75 75.30 75.02 74.87 75.23 74.98 75.23 74.04 75.78 75.03 76.02 76.51 76.29 75.88 75.75 75.69 75.88 75.81 74.88
73.83 74.98 77.35 77.73 77.15 77.28 76.59 76.92 77.02 77.40 77.41 76.80 76.79 76.74 76.81 76.78 76.78 76.03 75.89 75.56 75.81 75.75 75.87 75.31 75.17 75.20 75.28 75.28 75.39 75.29 74.61 73.44 74.79 74.53 75.59 75.90 75.97 76.71 76.04 75.42 75.85 75.71 74.94
73.37 74.30 76.99 77.09 77.44 77.41 76.64 77.27 77.26 77.36 77.03 77.04 77.05 77.02 77.22 77.16 76.87 77.05 76.72 76.28 75.92 75.67 75.84 75.16 75.09 75.39 75.42 75.92 75.79 75.41 74.01 73.82 74.57 75.69 75.54 76.13 75.81 75.96 75.85 75.73 75.59 75.56 73.92
73.73 74.20 76.56 75.92 77.75 77.07 76.86 77.10 77.08 77.38 77.20 76.96 76.78 76.92 77.49 77.36 77.00 76.64 76.25 75.78 75.60 75.41 75.10 75.36 75.28 75.43 75.75 75.85 75.92 75.42 74.01 73.25 75.29 75.26 75.14 75.22 75.63 75.87 75.62 75.62 75.30 74.76 74.79
73.48 74.06 76.00 75.62 76.07 77.71 76.43 76.90 77.12 77.21 77.36 77.04 76.64 77.25 77.33 77.09 76.31 76.17 76.54 75.78 75.61 75.41 75.28 75.38 75.50 75.50 75.75 75.85 75.93 75.55 75.16 74.70 74.24 74.11 74.63 74.58 75.14 75.60 75.37 75.24 75.38 75.03 75.02
72.49 73.79 75.68 74.54 75.44 76.35 76.76 77.25 77.00 77.08 77.11 77.17 77.31 77.18 77.43 76.14 76.15 76.52 76.34 75.63 75.55 75.75 75.37 75.35 75.56 75.56 76.31 76.17 76.08 75.38 75.82 74.32 73.78 74.08 74.62 74.83 76.11 75.39 75.31 75.31 75.04 74.87 74.71
71.22 72.49 74.34 74.62 75.18 75.81 75.15 76.83 77.13 76.68 76.71 77.01 77.00 77.41 76.82 76.86 76.96 76.29 76.63 76.36 76.05 76.08 75.94 75.77 75.72 75.45 76.07 74.89 75.18 75.52 74.44 74.25 73.91 74.12 74.55 74.74 76.05 75.32 75.44 75.08 74.73 74.70 74.79
71.40 72.41 73.93 74.66 75.64 75.58 75.64 76.07 76.03 76.23 76.30 76.84 77.62 77.08 76.80 76.57 75.98 76.07 75.47 75.89 75.88 76.18 75.44 76.11 76.37 75.40 75.47 74.81 75.17 74.81 75.05 74.58 73.57 74.12 74.94 75.39 75.30 75.02 75.32 75.10 74.92 74.51 74.38
71.18 72.17 73.67 74.66 75.38 75.94 75.85 75.76 75.73 75.54 75.67 75.46 76.37 77.77 77.26 76.73 76.49 76.31 75.43 75.66 76.27 77.01 76.74 77.45 75.77 76.81 77.05 77.01 75.66 74.93 74.69 74.30 73.78 73.62 74.49 74.76 75.02 74.59 75.20 75.04 74.94 74.52 74.79
70.89 71.81 73.26 74.63 75.55 76.38 76.42 75.74 75.53 75.63 75.75 76.06 76.83 76.56 77.87 76.86 76.39 76.06 76.03 76.40 77.12 76.71 75.88 76.10 75.35 75.61 75.80 76.63 75.96 75.61 74.94 74.59 74.51 74.12 74.28 74.43 74.03 74.01 74.97 74.76 74.74 74.60 74.54
71.57 71.76 73.27 74.39 75.59 76.16 76.29 76.99 76.09 76.29 76.60 76.45 76.48 75.98 77.69 79.52 77.28 75.72 76.23 76.03 76.29 77.57 76.37 75.64 75.36 74.47 74.61 75.19 75.83 75.66 75.24 74.88 74.95 75.84 74.03 75.14 74.55 73.46 72.97 73.60 74.00 74.30 73.80
71.82 72.74 73.07 74.27 75.12 75.92 76.32 76.80 76.25 76.21 75.71 75.84 76.37 77.11 76.42 77.81 77.88 78.20 76.45 76.36 76.33 77.36 77.37 76.73 76.54 76.00 72.83 73.78 75.06 75.55 75.27 74.73 74.39 74.97 75.83 74.87 74.40 74.58 73.83 72.94 72.47 72.39 72.20
72.18 72.82 73.66 73.43 74.13 75.18 75.56 76.03 75.38 75.51 75.94 75.96 76.48 76.69 76.47 77.17 77.88 78.62 76.73 76.30 77.27 76.88 76.02 75.19 73.55 73.45 72.96 72.95 73.78 73.75 74.46 74.39 74.58 74.75 75.04 76.06 76.24 74.60 74.66 74.65 74.29 74.15 74.19
73.00 73.54 73.57 73.86 73.68 74.21 75.43 75.41 75.47 76.36 76.16 76.44 76.89 76.93 77.87 77.59 77.93 78.60 76.73 77.51 79.10 77.68 75.10 74.78 74.12 74.67 72.35 72.42 72.66 73.70 74.35 73.53 74.21 73.95 74.36 75.66 75.24 75.75 75.31 75.03 74.36 74.01 73.77
73.42 74.02 74.21 73.72 74.21 74.77 74.47 74.87 74.49 75.10 75.91 76.71 76.82 77.16 78.36 77.74 77.72 78.09 77.73 79.03 77.14 75.46 75.47 75.29 75.67 75.16 73.95 73.51 71.06 72.37 73.58 74.00 74.04 74.02 73.82 73.71 74.27 75.51 75.84 76.49 75.82 75.78 74.62
72.92 73.48 73.96 73.55 74.51 74.08 73.08 72.31 73.00 73.25 74.88 75.61 76.37 77.71 78.42 78.29 78.76 78.84 77.55 78.03 78.53 75.46 75.70 76.54 75.90 75.15 71.16 71.65 71.95 71.41 71.94 73.53 73.98 73.96 74.77 74.93 73.51 73.75 74.67 75.46 74.94 75.29 75.14
72.20 73.17 73.84 74.16 74.67 74.56 73.11 74.16 73.80 74.74 75.13 75.88 76.90 78.05 78.70 78.42 78.89 78.26 78.44 77.71 78.12 75.19 76.15 76.35 75.58 72.70 73.35 72.99 70.44 69.65 66.81 69.35 71.81 72.23 73.53 74.30 74.67 75.27 74.83 74.63 75.22 75.23 75.09
71.94 73.07 73.75 74.66 74.91 75.05 75.72 73.86 75.25 75.88 76.14 75.72 76.29 76.51 77.97 78.70 78.87 78.89 78.74 78.47 79.05 76.38 75.09 76.52 75.53 74.52 71.20 73.19 74.34 72.15 67.30 66.09 67.11 70.16 72.66 72.71 74.53 74.02 75.55 75.13 74.93 75.17 75.18
72.18 73.74 74.55 74.96 75.32 75.35 75.75 75.30 76.09 74.05 72.82 73.65 75.37 75.81 76.82 78.73 78.73 78.93 78.90 78.44 77.87 76.52 78.15 75.93 75.55 74.96 74.85 71.48 72.15 72.27 73.80 72.78 66.95 65.57 70.45 72.21 73.72 73.31 74.26 74.33 74.11 74.56 74.88
72.68 73.17 74.58 75.66 76.59 77.01 76.67 76.66 74.71 75.31 73.50 74.30 74.84 77.46 78.43 78.99 78.96 78.55 79.26 79.00 78.94 76.51 77.39 77.07 77.20 77.10 73.66 73.02 71.24 70.69 72.29 70.98 72.59 68.86 67.52 69.28 71.74 72.74 73.62 73.95 74.21 74.30 74.80
73.09 73.17 74.19 75.94 76.94 77.09 76.31 75.11 76.78 76.79 76.25 74.09 75.47 74.99 75.25 75.95 77.40 78.77 79.00 79.27 79.37 77.99 77.18 76.89 77.76 78.00 76.79 75.50 73.32 73.16 70.21 69.21 69.32 69.49 69.00 70.17 69.86 72.70 73.51 73.84 73.88 73.89 74.17
MSLP
1015.90 1015.95 1016.38 1016.49 1016.68 1016.82 1016.91 1017.12 1017.21 1017.30 1017.29 1017.39 1017.52 1017.72 1017.92 1018.10 1018.15 1018.20 1018.27 1018.41 1018.44 1018.53 1018.57 1018.62 1018.54 1018.56 1018.60 1018.59 1018.65 1018.77 1018.79 1018.87 1018.96 1019.02 1019.04 1019.08 1019.18 1019.22 1019.29 1019.36 1018.99 1018.95 1019.67
1015.29 1016.02 1016.64 1016.76 1016.86 1017.02 1017.14 1017.30 1017.42 1017.52 1017.60 1017.67 1017.79 1017.96 1018.17 1018.29 1018.33 1018.45 1018.52 1018.61 1018.60 1018.66 1018.76 1018.81 1018.78 1018.83 1018.87 1018.93 1018.98 1019.06 1019.14 1019.00 1019.11 1019.19 1019.16 1019.30 1019.48 1019.57 1019.60 1019.47 1019.38 1019.80 1019.98
1015.06 1015.86 1016.53 1016.89 1017.07 1017.23 1017.38 1017.52 1017.62 1017.72 1017.84 1017.92 1018.01 1018.20 1018.42 1018.48 1018.51 1018.59 1018.71 1018.80 1018.76 1018.86 1018.94 1019.02 1019.04 1019.07 1019.09 1019.17 1019.22 1019.31 1019.36 1019.42 1019.39 1019.40 1019.02 1018.77 1019.28 1020.08 1019.98 1020.12 1020.21 1020.28 1020.47
1014.78 1015.41 1016.30 1017.14 1017.31 1017.48 1017.61 1017.72 1017.84 1017.95 1018.06 1018.19 1018.29 1018.43 1018.62 1018.68 1018.72 1018.73 1018.89 1018.88 1018.96 1019.08 1019.14 1019.20 1019.26 1019.29 1019.35 1019.37 1019.48 1019.62 1019.67 1019.77 1019.70 1019.30 1018.80 1019.22 1019.36 1020.42 1020.37 1020.49 1020.60 1020.70 1020.77
1014.57 1015.20 1016.64 1017.34 1017.54 1017.65 1017.81 1017.98 1018.09 1018.18 1018.28 1018.43 1018.52 1018.64 1018.75 1018.80 1018.88 1018.99 1019.04 1019.12 1019.28 1019.36 1019.38 1019.50 1019.50 1019.59 1019.70 1019.73 1019.76 1019.96 1020.06 1020.13 1019.88 1018.99 1019.18 1019.44 1019.48 1020.61 1020.68 1020.74 1020.80 1020.86 1020.94
1014.54 1015.32 1017.20 1017.53 1017.74 1017.82 1018.02 1018.20 1018.30 1018.42 1018.52 1018.70 1018.70 1018.86 1018.99 1019.05 1019.12 1019.21 1019.33 1019.41 1019.51 1019.62 1019.68 1019.76 1019.86 1019.90 1019.95 1020.06 1020.17 1020.28 1020.45 1020.27 1019.71 1019.40 1019.26 1020.16 1020.13 1020.78 1020.90 1020.96 1021.02 1021.24 1021.37
1014.52 1015.67 1016.93 1017.68 1017.92 1018.06 1018.22 1018.52 1018.58 1018.62 1018.73 1018.87 1018.94 1019.06 1019.26 1019.33 1019.31 1019.49 1019.57 1019.64 1019.75 1019.84 1019.91 1020.04 1020.10 1020.07 1020.13 1020.25 1020.39 1020.54 1020.70 1020.40 1019.55 1019.42 1019.92 1020.52 1020.74 1021.11 1021.26 1021.44 1021.42 1021.48 1021.66
1014.60 1015.54 1016.89 1017.88 1018.05 1018.22 1018.44 1018.68 1018.84 1018.87 1019.00 1019.08 1019.18 1019.34 1019.45 1019.46 1019.59 1019.70 1019.75 1019.85 1019.96 1020.01 1020.11 1020.24 1020.28 1020.40 1020.37 1020.44 1020.60 1020.74 1020.82 1020.36 1019.72 1019.88 1020.37 1020.74 1021.50 1021.48 1021.58 1021.66 1021.82 1021.89 1022.01
1014.68 1015.52 1016.44 1017.29 1018.02 1018.50 1018.71 1018.93 1019.11 1019.15 1019.26 1019.35 1019.46 1019.55 1019.64 1019.76 1019.86 1019.92 1019.98 1020.06 1020.11 1020.24 1020.34 1020.41 1020.46 1020.63 1020.59 1020.74 1020.87 1021.09 1021.06 1020.64 1019.83 1020.32 1020.23 1020.55 1021.81 1021.80 1021.96 1022.11 1022.01 1022.34 1022.39
1014.94 1015.67 1016.33 1016.91 1017.38 1017.73 1018.52 1019.11 1019.28 1019.39 1019.51 1019.60 1019.72 1019.86 1019.98 1020.01 1020.14 1020.20 1020.19 1020.30 1020.25 1020.34 1020.49 1020.67 1020.92 1020.73 1020.82 1020.97 1021.13 1021.26 1021.10 1020.67 1020.09 1020.20 1020.09 1021.48 1022.10 1022.13 1022.32 1022.41 1022.50 1022.78 1022.77
1015.36 1015.77 1015.96 1016.56 1017.42 1017.88 1018.25 1018.98 1019.34 1019.58 1019.70 1019.81 1019.89 1020.13 1019.82 1019.18 1019.54 1019.72 1020.35 1020.50 1020.51 1020.52 1020.63 1020.84 1021.01 1020.90 1020.89 1021.08 1021.27 1021.15 1020.79 1020.04 1020.14 1019.89 1020.63 1022.23 1022.22 1022.27 1022.53 1022.62 1022.74 1022.91 1022.98
1015.33 1015.71 1015.81 1016.53 1017.30 1017.70 1017.73 1018.79 1018.82 1019.06 1018.84 1018.83 1019.09 1019.66 1019.21 1019.51 1019.55 1019.61 1020.36 1020.66 1020.70 1020.76 1020.86 1020.93 1020.97 1020.64 1020.69 1019.90 1020.55 1020.70 1019.93 1020.61 1020.33 1020.24 1021.41 1022.34 1022.42 1022.56 1022.76 1022.90 1023.04 1023.16 1023.22
1015.30 1015.71 1016.12 1016.90 1017.58 1017.64 1017.73 1018.19 1018.33 1018.34 1018.81 1019.25 1019.69 1019.68 1019.71 1019.62 1019.74 1019.27 1020.04 1020.01 1020.19 1020.48 1019.86 1020.34 1020.44 1019.73 1019.69 1019.51 1019.72 1019.68 1020.57 1020.22 1020.50 1020.34 1022.17 1022.62 1022.64 1022.74 1022.90 1023.10 1023.28 1023.41 1023.40
1015.26 1015.88 1016.36 1017.10 1017.75 1017.66 1017.96 1017.94 1018.10 1018.27 1018.65 1018.92 1019.43 1019.97 1019.87 1019.45 1019.77 1019.54 1019.53 1020.00 1020.17 1019.74 1020.14 1019.91 1019.72 1020.15 1020.23 1020.16 1019.86 1020.14 1020.28 1020.17 1020.28 1020.63 1022.38 1022.88 1022.99 1022.96 1023.22 1023.23 1023.38 1023.56 1023.59
1015.23 1015.86 1016.39 1017.19 1017.95 1018.03 1018.23 1017.98 1018.14 1018.43 1018.44 1018.69 1019.47 1019.90 1019.45 1019.19 1019.55 1019.68 1020.06 1019.72 1019.79 1019.81 1019.88 1019.95 1020.03 1020.13 1020.48 1020.32 1020.28 1020.44 1020.54 1020.88 1020.89 1020.72 1021.59 1023.03 1023.16 1023.28 1023.39 1023.41 1023.52 1023.60 1023.71
1015.11 1015.78 1016.42 1017.26 1017.97 1018.22 1018.26 1018.60 1018.61 1018.59 1018.66 1018.92 1019.12 1019.58 1019.99 1019.71 1019.77 1019.74 1019.92 1019.84 1019.90 1019.64 1019.79 1019.80 1020.09 1020.03 1020.10 1020.04 1020.65 1020.61 1020.73 1021.06 1021.35 1021.23 1021.24 1022.57 1023.32 1023.50 1023.54 1023.67 1023.68 1023.72 1023.76
1015.19 1015.85 1016.42 1017.11 1017.74 1018.28 1018.47 1018.85 1018.76 1018.72 1018.69 1018.79 1018.96 1019.85 1020.05 1020.05 1020.20 1019.92 1019.78 1019.78 1019.86 1020.32 1020.52 1020.41 1020.47 1020.48 1020.11 1020.08 1020.65 1020.85 1020.92 1021.26 1021.46 1021.59 1021.19 1021.63 1022.75 1023.24 1023.46 1023.68 1023.74 1023.84 1023.84
1015.27 1015.88 1016.41 1016.77 1017.39 1018.07 1018.39 1018.79 1018.52 1018.60 1018.64 1018.68 1018.94 1019.38 1019.94 1020.17 1020.31 1020.26 1020.35 1019.69 1020.09 1020.10 1019.96 1020.23 1021.21 1020.10 1020.26 1020.17 1020.52 1020.47 1020.84 1021.10 1021.61 1021.69 1021.62 1021.67 1021.68 1022.38 1023.00 1023.46 1023.61 1023.72 1023.76
1015.11 1015.82 1016.35 1016.81 1017.25 1017.86 1018.34 1018.58 1018.63 1018.83 1018.77 1018.69 1018.89 1019.07 1019.81 1020.03 1020.10 1020.19 1020.04 1019.89 1020.81 1020.29 1019.84 1019.86 1020.09 1020.03 1020.52 1020.33 1020.51 1020.84 1020.88 1021.06 1021.34 1021.27 1021.79 1021.93 1022.10 1021.80 1021.78 1023.05 1023.45 1023.55 1023.58
1014.78 1015.64 1016.30 1016.79 1017.22 1017.86 1018.12 1018.58 1018.44 1018.45 1018.67 1018.70 1018.82 1018.93 1019.64 1019.77 1020.02 1020.13 1019.80 1020.52 1020.64 1020.43 1020.11 1019.92 1020.46 1020.66 1020.74 1020.76 1020.24 1020.76 1020.89 1021.00 1021.29 1021.35 1021.44 1021.50 1021.93 1022.10 1021.88 1022.38 1022.33 1022.35 1023.18
1014.31 1015.20 1015.95 1016.58 1017.14 1017.77 1017.97 1018.02 1018.05 1018.02 1018.30 1018.52 1018.61 1019.08 1019.45 1019.65 1019.95 1020.14 1019.71 1020.35 1020.69 1020.37 1020.31 1020.71 1020.86 1021.16 1021.76 1021.75 1021.47 1020.83 1021.07 1021.19 1021.28 1021.20 1021.16 1021.17 1021.64 1021.68 1021.84 1021.88 1021.90 1021.72 1022.18
1013.67 1014.60 1015.48 1016.20 1016.93 1017.53 1017.62 1017.66 1017.63 1017.74 1017.86 1018.00 1018.19 1018.80 1019.08 1019.38 1019.73 1019.93 1019.99 1019.97 1020.46 1020.38 1020.77 1020.98 1021.02 1020.65 1020.66 1021.42 1021.20 1020.29 1020.35 1020.71 1020.58 1020.68 1020.94 1021.03 1021.13 1021.12 1021.28 1021.75 1021.83 1022.07 1022.03
1012.87 1013.90 1014.81 1015.73 1016.43 1017.10 1017.22 1017.60 1017.84 1017.88 1017.97 1018.28 1018.24 1018.52 1018.74 1019.10 1019.40 1019.72 1020.05 1019.98 1020.52 1020.63 1020.41 1020.99 1021.03 1020.84 1020.42 1021.18 1021.20 1020.67 1020.13 1019.54 1020.16 1020.74 1021.07 1020.86 1021.15 1021.00 1021.08 1021.40 1021.56 1021.76 1022.00
1011.93 1013.17 1014.18 1015.21 1015.89 1016.58 1017.07 1017.11 1017.42 1017.29 1017.22 1017.32 1017.66 1017.86 1018.24 1018.86 1019.10 1019.43 1019.80 1020.04 1020.30 1020.33 1020.37 1020.65 1020.72 1020.64 1020.62 1020.58 1021.07 1020.85 1020.87 1020.44 1019.66 1019.68 1020.27 1020.51 1020.85 1020.85 1020.90 1020.79 1020.76 1021.26 1021.67
1011.25 1012.14 1013.31 1014.50 1015.31 1015.77 1016.44 1016.65 1017.07 1017.12 1016.90 1017.18 1017.44 1017.87 1018.28 1018.65 1018.91 1019.07 1019.52 1019.84 1020.33 1020.18 1020.35 1020.71 1020.98 1020.90 1020.74 1020.17 1020.24 1020.60 1020.81 1020.58 1020.56 1019.63 1019.30 1019.75 1020.19 1020.20 1020.19 1020.46 1020.31 1020.53 1021.04
1010.40 1011.34 1012.26 1013.38 1014.38 1015.19 1015.76 1016.44 1016.64 1016.70 1016.75 1016.84 1017.42 1017.64 1017.87 1018.07 1018.49 1018.97 1019.17 1019.52 1019.82 1020.18 1020.28 1020.48 1020.64 1020.80 1020.66 1020.73 1020.45 1020.42 1020.17 1020.06 1019.82 1019.89 1019.66 1019.80 1019.65 1019.70 1019.86 1019.87 1020.12 1020.26 1020.37
Wind_Speed
13 15 14 14 15 14 14 13 13 12 12 12 13 13 12 11 10 10 9 10 10 11 11 10 10 10 10 11 10 11 10 11 13 14 13 12 14 13 12 8 11 16 14
18 16 13 15 15 14 13 13 12 12 11 11 11 10 10 9 10 11 11 9 9 11 10 10 10 10 10 11 10 11 10 10 13 12 14 14 13 13 11 13 16 14 15
18 17 16 14 15 14 13 13 12 11 11 11 10 10 9 9 9 10 10 8 8 11 10 10 10 10 10 11 10 10 10 9 8 9 9 6 14 12 13 14 15 14 15
18 17 17 13 14 14 13 13 12 12 12 10 10 10 9 8 7 10 10 7 7 10 10 10 10 10 11 12 11 11 11 10 8 6 9 6 13 12 13 13 14 14 14
18 16 17 13 14 14 13 12 11 12 12 11 10 9 10 9 8 10 9 8 9 8 10 10 10 10 9 10 12 12 11 9 3 6 10 6 10 12 13 13 13 11 14
18 16 17 15 15 14 14 13 11 12 12 11 10 11 11 10 9 10 10 10 10 9 9 8 9 9 9 10 9 10 10 4 7 6 10 11 11 12 11 12 14 14 13
18 17 17 14 14 15 14 13 12 12 12 12 11 11 12 11 13 11 10 10 9 9 8 9 8 8 8 9 10 9 9 1 7 7 12 8 11 11 12 12 13 12 13
18 17 18 14 14 14 13 13 12 12 11 10 10 11 12 12 13 12 10 9 9 9 8 9 7 10 9 10 10 11 8 4 5 11 11 7 9 10 11 12 12 12 12
18 16 15 15 14 13 13 12 12 12 11 11 10 11 11 13 12 11 9 9 9 9 9 8 8 10 11 12 14 11 8 2 7 8 9 9 7 10 10 10 11 11 9
15 16 14 14 14 12 13 12 12 11 12 11 10 10 12 12 11 10 10 7 9 9 9 8 8 7 11 12 13 13 10 9 9 6 8 9 8 10 9 9 10 10 10
14 14 16 14 12 9 11 10 11 11 11 11 10 8 12 8 10 10 12 7 8 9 9 8 7 6 12 12 12 10 12 6 6 5 9 5 7 10 9 9 9 9 9
17 16 13 13 12 11 9 10 9 10 10 8 8 7 4 6 6 9 9 9 7 8 8 7 7 6 12 10 7 11 5 6 5 4 9 4 8 10 10 9 8 7 7
18 13 14 12 10 10 9 8 6 5 6 6 6 5 6 5 7 5 6 6 7 6 7 9 9 5 5 4 4 7 7 5 5 6 9 6 9 7 9 8 8 7 6
18 16 15 13 10 9 7 7 7 6 6 6 7 5 4 5 4 3 4 4 4 3 4 2 4 4 3 2 7 7 6 5 5 5 9 7 8 6 7 7 7 6 7
18 16 15 14 11 8 8 6 6 6 6 7 6 5 3 3 4 4 4 3 2 4 5 4 4 4 3 3 6 5 7 6 5 4 7 7 6 5 7 6 5 7 6
17 17 15 14 12 10 8 7 6 6 5 5 5 5 4 3 3 5 5 5 4 2 3 4 4 3 3 6 5 5 6 7 5 1 7 9 6 4 3 4 4 4 3
16 16 16 15 14 11 9 9 7 6 6 6 5 6 4 3 4 2 4 4 4 3 4 4 3 3 4 5 6 5 6 5 6 4 3 5 10 10 5 4 3 3 2
16 16 16 13 15 13 10 8 7 6 5 5 5 5 5 4 4 5 4 4 5 4 3 3 3 4 3 5 4 4 5 5 6 4 5 2 2 7 9 6 4 4 4
17 16 16 15 15 13 10 8 7 7 5 5 5 5 6 5 4 2 4 4 4 1 4 5 5 2 4 5 7 4 4 5 4 6 5 2 5 2 3 11 5 5 5
17 16 15 14 14 12 9 7 7 7 6 5 5 4 6 5 5 5 3 4 4 4 4 3 2 2 5 4 3 5 3 4 4 4 5 4 5 3 3 2 6 9 9
19 17 17 16 14 11 10 10 9 9 7 6 5 5 6 6 6 4 3 5 5 4 1 4 6 5 4 1 1 5 4 5 6 3 2 1 6 4 2 3 4 2 8
20 19 18 17 15 13 10 9 8 8 7 7 6 6 7 8 7 5 3 4 3 5 4 4 4 5 4 7 5 3 5 6 4 4 3 2 1 2 3 4 1 3 3
22 21 19 18 17 15 12 9 7 7 4 6 7 7 8 8 8 6 5 4 4 6 7 7 7 5 7 5 5 3 2 3 5 5 6 4 3 4 1 3 3 2 3
23 21 20 19 18 16 15 12 13 11 10 8 7 6 7 9 9 8 6 5 4 3 1 3 5 4 4 6 5 3 4 7 2 6 5 4 4 5 5 4 4 5 4
23 22 20 19 18 16 15 13 12 12 10 8 8 8 7 7 9 9 8 7 5 6 4 6 5 6 5 2 5 5 3 3 1 5 3 5 5 4 4 5 3 3 5
22 22 21 21 18 18 17 18 14 14 11 10 10 9 8 8 8 9 9 8 7 5 7 5 6 7 5 3 4 3 5 5 6 3 3 3 3 2 3 4 5 5 5
Wind_Direction
147 143 147 143 139 134 130 129 121 120 113 116 121 123 123 120 115 111 106 98 98 93 82 83 87 91 96 97 93 99 103 106 108 104 105 107 99 97 94 99 146 98 93
139 140 145 141 134 131 128 126 123 124 123 121 123 123 123 120 115 111 103 103 95 86 81 82 86 98 101 101 108 100 108 112 111 117 115 100 94 95 81 67 66 89 90
140 137 150 136 133 132 128 127 126 121 123 125 123 117 117 114 114 111 112 111 101 95 94 96 91 89 94 102 102 100 90 87 105 121 142 114 93 99 96 87 90 90 87
145 147 137 132 133 132 130 127 124 126 122 121 120 122 120 123 122 116 119 118 96 101 98 99 95 95 97 106 98 100 88 84 104 193 105 107 96 95 95 89 93 98 97
146 140 120 136 133 130 126 124 124 120 121 120 117 115 115 120 127 112 112 112 107 94 99 88 93 97 99 97 98 106 94 93 151 209 102 64 96 103 99 115 119 98 76
139 136 130 137 138 130 127 124 123 121 120 111 115 107 110 108 105 103 102 101 102 107 102 99 102 102 95 97 103 100 92 113 224 89 98 79 77 105 103 95 95 99 96
145 134 139 144 138 130 131 125 121 119 119 119 118 123 116 116 112 105 99 99 104 106 113 115 107 101 97 108 118 95 96 338 86 90 85 99 96 100 99 98 103 104 100
139 146 132 140 131 127 130 120 119 119 116 116 116 112 112 102 88 95 101 105 108 109 109 111 109 102 96 103 108 110 120 178 108 58 62 97 92 100 98 101 105 103 103
144 137 143 145 134 129 129 123 120 115 113 110 106 99 101 102 97 93 89 88 99 110 114 111 100 92 102 110 113 107 100 355 102 107 139 109 104 103 100 102 109 100 105
146 146 139 145 145 148 144 130 127 117 116 115 119 120 116 110 109 115 129 98 99 106 113 110 92 94 100 118 116 121 144 203 91 109 88 84 95 101 106 106 100 94 95
155 161 156 151 144 142 132 130 134 128 126 130 135 119 176 129 136 139 73 105 97 105 114 115 110 110 115 114 117 146 201 81 120 92 89 107 141 114 112 111 103 110 108
163 166 158 146 145 159 149 157 148 147 160 144 136 150 131 113 79 94 98 98 93 108 108 118 122 202 202 140 134 189 96 108 92 117 87 115 116 111 111 114 115 110 104
166 165 157 151 159 164 133 165 165 165 142 137 139 177 115 155 165 154 135 153 140 193 151 167 178 196 31 98 93 79 107 153 132 97 92 75 104 116 116 120 116 117 115
167 166 164 158 166 172 162 181 161 152 158 159 143 168 149 192 159 145 114 116 166 123 124 141 113 82 119 24 70 81 90 101 108 106 110 97 96 118 115 127 122 114 106
169 169 167 161 169 166 181 170 162 153 181 137 167 155 204 159 126 162 132 129 113 167 126 130 107 80 85 139 122 102 90 74 100 106 114 125 121 97 102 111 127 128 113
171 174 167 170 171 177 189 172 164 184 144 179 161 139 192 228 157 136 150 141 140 151 128 119 66 95 87 126 118 100 82 103 65 162 119 135 141 122 116 108 105 102 129
177 176 171 178 174 182 184 179 194 171 170 168 149 155 151 210 159 150 147 181 133 106 146 149 129 125 109 111 99 124 108 100 110 96 108 129 147 163 164 166 169 181 199
181 182 179 186 177 182 183 183 193 170 175 170 154 155 163 169 205 217 160 166 129 187 131 150 165 169 118 119 111 140 101 105 104 110 88 40 33 144 161 181 200 220 243
185 183 188 189 181 181 179 190 199 163 202 170 171 171 156 179 183 178 179 111 202 24 149 143 162 173 130 128 135 134 119 112 166 102 93 124 93 310 76 150 172 222 240
183 185 191 190 184 186 180 198 200 177 187 191 194 189 168 193 195 227 147 132 167 186 188 123 105 91 50 1 122 105 112 124 125 122 123 148 113 169 190 291 193 178 196
187 188 193 194 185 188 191 193 195 197 184 194 214 197 189 199 190 198 203 174 220 175 180 169 155 165 126 322 310 142 127 168 172 168 166 136 120 179 99 160 260 291 164
188 191 194 196 191 196 194 202 200 205 190 196 188 177 190 187 187 195 223 185 184 120 182 169 202 165 149 174 234 213 165 168 195 195 162 215 133 161 164 191 252 223 281
192 193 195 196 195 198 202 194 189 194 211 197 182 187 185 186 187 202 193 255 154 191 190 177 200 221 153 177 278 284 216 168 148 166 187 221 163 219 230 205 237 193 221
196 194 197 197 197 197 197 191 196 197 199 198 192 189 174 193 190 188 196 203 193 224 161 177 201 187 255 159 185 242 346 0 280 164 183 192 214 219 201 231 184 191 202
196 196 196 196 198 199 193 213 195 220 203 195 201 174 222 180 202 200 199 202 192 229 193 176 185 232 180 199 210 179 192 176 336 316 124 150 193 216 218 210 255 246 188
197 198 195 193 196 198 197 202 207 205 222 205 202 194 205 203 190 207 205 209 203 204 212 203 211 193 235 240 241 236 202 210 182 214 251 199 328 172 248 231 225 239 236